sat.trackr.live / text

‹ back to catalog

STARLINK-11426 [DTC]

NORAD 62058 · 2024-217B

PAYLOAD ACTIVE UNKNOWN

§ Identity

Operator
Country
US
Launch date
2024-11-24
Launch site
AFWTR
Launch vehicle
Mass (kg)
RCS (m²)

Purposes: comms

External: N2YO · Heavens-Above · Gunter

§ Orbital elements

Epoch: 2026-05-25T03:13:34.110048Z

Period
91.74 min
Inclination
53.1570°
Eccentricity
0.0000876
Mean motion
15.69733381 rev/d
Perigee alt
359.1 km
Apogee alt
360.3 km
Semi-major
6,737.8 km
B*
1.1601e-3
RAAN
54.1495°
Arg perigee
85.9191°
Mean anomaly
274.1927°
Rev number
8,712

§ Raw data

STARLINK-11426 [DTC]1 62058U 24217B   26145.13442257  .00142533  00000+0  11601-2 0  99912 62058  53.1570  54.1495 0000876  85.9191 274.1927 15.69733381 87122

JSON: /api/v1/satellites/62058 · /tle

For live sub-satellite position, see the globe view (requires WebGL).

§ Visibility from observer

Set your observer location to see the next 7 days of passes ≥ 10°. The values pass through the URL so the page stays shareable.

No JS? Fill the form by hand. The geolocation button needs JavaScript.